Dewpoint
67 71 75 75 75 75 75 75 75 75 74 73 72 72 72 69 68 68 68 68 68 67 67 69 69 69 69 70 71 71 71 71 71 71 70 70 69 68 68 69 69 66 68
65 70 75 75 75 75 75 75 74 74 74 73 71 72 72 69 69 69 69 69 68 67 68 69 70 70 70 70 70 70 70 70 70 71 69 69 69 69 69 71 70 69 69
67 69 72 75 75 75 75 75 74 74 74 74 74 73 71 69 70 71 69 69 68 68 68 70 69 69 69 69 68 68 69 69 69 70 69 69 69 70 70 70 70 70 68
68 69 70 75 75 75 75 75 74 74 74 74 73 73 71 69 69 71 71 70 71 70 71 71 70 69 68 68 66 68 68 68 69 68 67 66 66 69 69 68 68 68 67
68 70 69 74 74 75 75 75 74 74 74 74 73 73 72 70 69 70 71 71 71 72 72 70 69 69 68 69 68 68 68 67 69 66 63 64 65 66 68 67 66 66 65
65 69 72 73 73 74 75 75 74 74 74 74 73 73 73 71 70 70 72 71 72 72 71 70 68 68 68 68 68 67 66 67 67 60 60 66 64 66 66 65 64 64 64
55 64 70 73 73 73 73 74 74 74 74 73 72 73 72 71 71 71 72 71 72 71 71 69 68 67 67 67 65 66 66 66 62 58 58 63 63 65 64 64 64 64 64
50 51 69 71 72 72 72 72 73 73 73 73 73 73 73 72 72 72 72 72 71 71 70 68 68 67 67 66 66 65 65 64 60 56 61 62 66 64 64 64 64 64 64
46 51 58 68 70 71 71 71 72 72 72 72 72 72 72 72 72 72 72 72 71 71 70 69 68 67 67 68 68 66 64 63 60 57 61 63 67 65 64 64 64 64 63
45 46 47 53 68 69 68 71 71 71 71 71 71 71 70 70 70 72 71 71 70 70 70 70 69 68 68 69 68 66 63 62 58 57 61 64 67 65 65 64 64 63 63
46 46 46 47 50 60 68 69 70 70 70 70 70 69 69 69 68 69 69 69 69 70 70 70 70 69 68 68 67 65 63 58 55 56 62 67 67 65 65 65 64 63 63
41 43 45 45 48 49 62 67 69 69 69 68 68 68 69 68 67 66 67 67 69 69 69 70 70 69 67 67 66 64 61 59 57 56 63 67 66 66 65 65 65 64 63
40 42 43 45 46 47 51 67 69 68 68 68 66 66 67 66 66 66 67 67 68 66 67 68 68 67 64 62 64 62 60 58 56 57 63 66 67 66 66 65 65 65 64
39 41 42 44 44 46 50 59 67 68 68 67 66 65 66 65 64 66 68 68 67 65 63 65 65 65 62 59 59 59 58 57 56 56 61 65 66 65 66 66 66 65 65
37 40 42 44 44 45 46 53 65 67 67 65 65 64 64 63 63 65 68 68 67 66 63 61 59 60 59 57 56 55 55 55 55 55 59 62 64 66 65 66 66 66 66
36 39 42 44 44 45 46 47 57 65 67 67 64 63 63 63 63 63 65 67 67 67 64 61 59 57 56 56 56 55 54 53 54 54 55 60 63 65 66 65 66 67 67
36 39 42 44 45 42 44 46 49 63 65 67 67 64 63 63 63 62 63 66 66 66 65 63 59 57 56 56 55 54 53 52 51 51 52 55 60 62 65 65 65 66 67
41 41 42 43 42 43 42 44 47 53 64 66 68 67 66 65 65 64 62 65 67 66 66 65 63 58 56 55 55 55 53 53 51 50 50 52 56 57 61 64 66 67 67
44 44 44 44 44 41 39 42 44 50 62 65 67 67 66 66 65 66 65 64 65 65 65 64 63 63 58 57 55 55 54 53 52 51 51 52 53 56 58 61 63 64 65
46 45 45 44 43 41 42 42 43 46 56 64 65 66 66 66 65 65 66 66 66 65 64 65 63 63 61 58 57 56 56 56 54 52 51 52 53 55 56 57 60 60 62
44 45 45 44 44 44 42 44 42 43 51 63 64 65 66 65 66 65 65 65 66 65 65 65 64 63 63 62 60 60 59 57 57 55 54 53 54 54 56 57 58 60 60
42 44 45 45 44 44 44 44 45 44 51 59 63 63 65 65 65 65 65 65 65 64 65 65 64 63 63 63 60 59 56 57 59 57 56 54 54 55 55 54 57 58 60
42 42 44 47 46 46 45 47 47 47 53 56 58 61 63 65 65 65 65 65 64 64 64 64 64 63 62 63 63 59 55 52 51 56 57 56 54 54 55 54 55 57 59
43 43 44 46 49 47 47 47 45 45 49 55 57 58 62 63 64 64 65 65 65 64 64 63 64 63 63 61 62 62 61 56 53 51 53 54 53 53 53 55 56 57 58
46 44 44 46 49 49 47 46 46 46 47 54 56 58 61 63 64 64 64 64 64 64 64 63 63 63 63 62 61 60 60 60 59 56 54 53 55 57 57 57 57 58 59
44 47 48 47 50 51 48 46 45 46 48 52 53 56 58 60 62 64 64 64 64 64 63 63 63 62 62 62 62 61 59 57 57 56 55 54 53 54 56 57 58 59 59
Lifted_Index
-2 -3 -4 -4 -4 -5 -5 -4 -4 -4 -3 -3 -2 -2 -1 0 1 1 2 2 3 3 2 2 2 2 1 1 1 1 1 1 1 1 2 2 2 1 1 1 1 1 1
-2 -3 -4 -4 -4 -5 -4 -4 -4 -4 -3 -3 -2 -2 -1 0 1 1 1 2 2 3 2 1 1 1 1 1 2 2 2 1 1 2 2 2 2 1 1 1 0 1 1
-2 -3 -4 -4 -4 -5 -4 -4 -4 -3 -3 -3 -2 -2 -1 -0 0 0 0 1 2 2 2 1 1 2 2 2 3 3 2 2 2 2 2 2 2 1 1 1 1 1 1
-3 -3 -4 -4 -4 -4 -4 -4 -4 -3 -3 -3 -2 -2 -1 -0 -0 -0 -0 0 1 1 1 1 2 2 2 3 3 3 3 3 3 3 2 2 2 2 2 2 2 2 2
-3 -3 -3 -4 -4 -4 -4 -4 -4 -4 -3 -3 -2 -2 -2 -1 -0 -1 -1 -0 0 0 1 1 2 2 3 3 3 3 3 3 4 4 3 3 3 3 3 3 3 3 3
-2 -3 -3 -3 -3 -4 -4 -4 -4 -4 -4 -3 -2 -2 -2 -1 -1 -1 -1 -1 -0 -0 0 1 2 3 3 3 3 3 3 4 5 5 4 4 4 4 4 4 4 4 4
-2 -2 -3 -3 -3 -3 -3 -4 -4 -4 -4 -3 -2 -2 -2 -2 -2 -1 -1 -1 -0 -0 1 1 2 3 3 4 4 4 4 5 6 6 5 5 4 4 4 5 5 5 5
-1 -1 -2 -3 -3 -2 -3 -3 -3 -3 -3 -3 -2 -2 -2 -2 -2 -2 -2 -1 -1 -0 1 1 2 3 3 3 4 5 6 7 7 6 5 5 4 4 4 5 5 5 5
0 -0 -1 -2 -2 -2 -2 -2 -3 -3 -3 -3 -2 -2 -2 -2 -2 -2 -2 -1 -1 -0 0 1 2 2 2 3 3 5 7 7 7 6 5 5 4 4 4 4 4 5 5
3 2 -0 -1 -2 -2 -2 -2 -2 -2 -2 -2 -2 -2 -2 -2 -2 -2 -2 -1 -0 -0 -0 0 1 1 2 2 3 5 7 7 7 6 5 4 4 4 4 4 4 5 5
7 6 2 0 -1 -2 -2 -2 -2 -2 -2 -2 -2 -2 -2 -2 -2 -2 -1 -1 -0 -0 -0 -0 0 1 1 2 3 5 6 7 6 6 5 4 3 3 3 4 4 4 5
11 9 7 4 1 -1 -2 -2 -2 -2 -2 -2 -1 -1 -1 -1 -1 -1 -1 -1 -0 -0 -0 -1 -1 0 1 2 3 4 6 6 6 5 5 4 3 3 3 3 3 4 4
12 12 11 8 5 2 -0 -1 -2 -2 -2 -2 -1 -1 -1 -1 -1 -1 -1 -1 -0 -0 0 -0 -0 0 1 2 3 4 5 5 5 5 4 4 3 2 2 3 3 3 3
13 13 12 11 9 6 3 1 -1 -2 -2 -2 -1 -1 -1 -1 -1 -1 -1 -1 -0 -0 0 1 1 1 2 2 3 3 4 4 4 4 4 4 3 2 2 2 2 2 2
13 13 12 12 11 10 7 4 1 -1 -2 -2 -2 -1 -1 -1 -1 -1 -1 -1 -0 -0 0 1 2 2 3 3 3 3 3 3 4 4 4 4 4 3 2 1 1 1 1
12 12 12 12 12 11 11 8 4 1 -1 -2 -2 -1 -1 -1 -1 -1 -1 -1 -1 -0 0 1 1 2 3 4 3 4 4 4 4 4 4 4 4 4 3 2 1 0 0
11 11 11 11 11 12 12 11 8 3 0 -1 -2 -2 -2 -2 -1 -1 -1 -1 -1 -1 -0 0 1 2 3 4 4 4 5 5 5 5 5 5 5 4 4 2 1 1 0
10 10 11 11 11 12 12 12 10 6 2 -0 -1 -2 -2 -2 -2 -1 -1 -1 -1 -1 -1 -0 0 1 2 3 4 4 5 5 6 6 6 6 5 5 4 3 2 1 1
10 10 10 10 11 11 12 12 11 8 4 1 -1 -1 -2 -2 -2 -2 -1 -1 -1 -1 -1 -1 -0 0 1 2 3 4 4 5 5 6 6 6 5 5 4 3 3 2 1
9 9 9 9 10 10 11 11 11 10 6 2 -0 -1 -2 -2 -2 -2 -1 -1 -1 -1 -1 -1 -1 -0 0 1 2 3 3 4 4 5 5 5 5 4 4 3 3 2 2
9 9 9 9 9 10 10 11 11 10 7 2 -0 -1 -2 -2 -2 -2 -2 -2 -2 -1 -1 -1 -1 -1 -0 0 1 1 2 3 3 4 4 5 4 4 4 3 3 2 2
10 10 9 8 9 9 9 10 10 9 7 3 1 -0 -1 -2 -2 -2 -2 -2 -2 -1 -1 -2 -1 -1 -0 -0 -0 0 1 1 2 2 3 4 4 4 3 3 3 2 2
10 10 9 8 7 8 8 9 9 8 7 4 2 1 -0 -1 -2 -2 -2 -2 -2 -1 -1 -2 -1 -1 -1 -1 -1 -0 0 1 1 2 2 3 3 3 3 3 3 3 2
9 10 9 7 6 6 6 7 7 7 6 4 3 2 0 -1 -2 -2 -2 -2 -2 -2 -2 -2 -1 -1 -1 -1 -1 -1 -0 0 1 2 2 2 3 3 2 3 3 2 2
10 10 9 7 5 4 5 5 6 6 6 4 3 2 0 -1 -1 -2 -2 -2 -3 -2 -2 -2 -2 -1 -1 -1 -1 -1 -1 -0 0 1 1 2 2 2 2 2 2 2 2
10 9 8 7 5 3 4 4 4 5 5 4 3 2 1 -0 -1 -1 -2 -2 -3 -3 -2 -2 -2 -2 -1 -1 -1 -1 -1 -0 -0 -0 1 2 2 2 2 2 2 2 2